Погода в Дакаре

Сенегал     14°46′52″N   17°16′57″W
темп.,
°C
ветер,
м/с
пор.,
м/с
влажн.,
%
обл.,
%
осадки,
мм/ч
давл.,
гПа
погр.,
м
9 августа, вт
вт900:00+27зсз348021 0.0 1013459
03:00+27з34798 0.0 1012385
06:00+27зюз458021 0.0 1012402
09:00+28зюз337645 0.0 1014704
12:00+29зсз437384 0.1 1015831
15:00+29зсз547585 0.1 1012762
18:00+29з557793 0.1 1012675
21:00+28зсз458029 0.0 1013627
10 августа, ср
ср1000:00+28зсз558124 0.0 1013591
03:00+27з568327 0.1 1011573
06:00+27зсз568090 0.1 1012474
09:00+28зсз6674100 0.0 1013901
12:00+29зсз567198 0.0 1013788
15:00+29зсз777475 0.0 1011833
18:00+28зсз677570 0.0 1010868
21:00+28зсз5677100 0.1 1012798
11 августа, чт
чт1100:00+27з6879100 0.3 1012916
03:00+27зсз6878100 0.1 1011845
06:00+27зсз787779 0.3 1010878
09:00+27з777271 0.0 1011979
12:00+28з557199 0.1 1012870
15:00+28зюз436786 0.0 1010829
18:00+28юз446656 0.0 1010996
21:00+27зюз667198 0.0 1011773
12 августа, пт
пт1200:00+27юз5672100 0.0 1012841
03:00+27зюз5672100 0.0 1011855
06:00+27з457491 0.0 1011613
09:00+27з447399 0.0 1012627
12:00+28з326967 0.0 1012815
15:00+28з437277 0.0 1011672
18:00+28з4474100 0.8 1011770
21:00+27зсз337888 0.1 1012623
13 августа, сб
сб1300:00+27з3479100 0.2 1013556
03:00+26сз3381100 0.2 1011454
06:00+26ссз338199 0.8 1012394
09:00+26с3381100 0.6 1013500
12:00+26с338199 1.3 1013544
15:00+27ссз337992 0.8 1012537
18:00+27ссз437756 0.9 1012608
21:00+26с3481100 0.1 1013390